Temp_Advection
nan nan nan nan nan nan nan nan nan nan nan nan nan nan nan nan nan nan nan nan nan nan nan nan nan nan nan nan nan nan nan nan nan nan nan nan nan nan nan nan nan nan nan nan nan nan nan nan nan nan nan nan nan nan
nan -0 -0 -0 -1 -0 -0 -0 0 1 1 0 -0 -0 -0 -0 -0 -0 -1 -0 0 -1 -0 -0 -1 -0 -1 -0 0 0 -0 -0 -1 -1 -0 0 -0 0 -0 -0 0 -0 -0 -0 -0 -1 -0 -0 -1 -1 -0 -0 -1 nan
nan -0 -0 -0 -0 -0 0 -0 0 0 0 -0 -0 -0 -0 -0 -0 -0 -1 -0 0 -0 -1 -1 -1 -0 -0 -0 1 -0 0 -0 -1 0 -0 -0 -0 -0 -0 -1 -0 -0 0 -0 0 -0 0 -0 -1 -0 -0 -1 -1 nan
nan 0 -0 -0 -0 -0 0 0 0 0 0 -0 -0 -0 -0 -0 -0 -0 -0 0 -0 -0 -0 -1 0 -1 -1 0 0 -0 -1 -0 -0 -0 -0 -0 -0 -0 -0 -0 -0 -0 0 -0 -0 -0 -0 0 -1 -1 -0 -1 -1 nan
nan -0 -0 0 -0 -0 0 0 0 0 -0 -0 -0 -0 -0 -0 -0 -0 -0 0 -1 -1 -0 -0 -0 -0 -0 -0 0 0 0 0 -0 -0 0 -0 -0 -0 -0 -0 -1 -0 0 0 0 -1 -1 -1 -1 -1 -1 -1 -1 nan
nan -0 0 0 -0 -0 -0 0 0 -0 -0 -0 -0 -0 -0 -0 -0 -0 -0 -1 -1 0 -0 -0 -0 -0 0 -0 0 0 0 0 -0 -0 -0 -0 -0 0 -0 -0 -0 -1 -1 -1 -0 -1 -1 -1 -1 -1 -1 -1 -1 nan
nan -0 -0 -0 -0 0 -0 0 -0 -0 -0 -0 -0 -0 -0 -0 -0 -1 -0 -1 -1 0 -0 -0 -0 -0 -0 -0 0 0 0 -0 0 -0 -0 -0 -0 0 -0 0 -0 -0 -0 -0 -1 -1 -0 -1 -1 -1 -1 -1 -0 nan
nan -0 -0 0 -0 -0 -0 -0 -0 -0 -0 -0 -0 -0 0 0 -0 -0 -0 0 0 -1 -1 -0 0 -0 -0 -0 -0 -0 -0 -0 -0 -0 -0 -0 0 0 0 -1 -0 -1 -1 -0 -0 -0 -0 0 0 -0 -0 -0 -0 nan
nan -0 -0 0 0 0 0 -0 -0 -0 -0 -0 -0 -0 -0 0 0 0 0 1 1 -0 -0 -0 -0 0 -0 -0 -0 -0 -0 -0 -0 -0 0 0 0 1 -0 -0 -1 -1 -1 -1 -1 -0 -0 -0 -0 -0 -1 -1 -0 nan
nan -0 -0 0 -0 -0 0 0 0 0 -0 -0 -1 -0 -0 -0 0 0 0 -0 -0 -0 -0 -0 -0 -0 0 0 -0 -0 -0 -0 -0 0 0 0 -0 -0 -0 -0 -0 -0 -1 -1 -1 -1 -1 -0 -0 -0 -1 -1 -0 nan
nan 0 0 0 0 0 0 0 -0 -0 -0 -0 0 -0 -0 -0 -0 -0 -0 -0 -0 -0 -0 -0 0 -0 0 0 0 -0 -0 0 0 -0 -0 -0 -0 -0 -0 -0 -0 -0 -0 -0 -0 -1 -0 -0 -0 -0 -1 -0 -0 nan
nan 0 0 0 -0 -0 0 0 -0 -0 -0 -0 -1 -0 -0 0 -0 -0 -0 0 -0 0 0 0 0 -0 -0 0 0 0 0 0 0 0 0 0 -1 -0 -0 -0 -0 -0 -0 -0 -0 -0 -0 -0 -0 -0 -0 -0 -0 nan
nan 0 -0 0 0 -0 -0 -0 0 0 -0 0 -0 -0 -0 0 0 0 0 0 0 -0 0 0 0 0 0 0 0 0 0 0 0 0 -0 -1 -1 -0 -0 -0 -0 -0 -0 -0 -0 -0 -0 -0 0 -0 -0 0 0 nan
nan -0 -0 0 0 0 -0 -0 -1 -0 0 0 -0 -0 -0 -0 -0 -0 -0 -0 -0 0 0 0 0 0 0 0 -0 0 -0 0 0 0 -0 -1 -1 -0 -0 -0 -0 -0 -0 -0 -0 -0 0 0 0 0 0 0 0 nan
nan -0 -1 -0 0 0 0 0 -0 0 -1 -0 -0 -0 -0 -0 -0 -0 -0 0 -0 0 0 0 0 0 -0 -0 -0 0 -0 0 -0 -1 -1 -1 -0 -0 -0 -0 -0 -0 -0 -0 -0 0 0 0 -0 -0 0 0 -0 nan
nan -0 -0 -0 -0 -0 -0 -0 0 -1 -1 -0 -0 0 -0 0 -0 -0 0 -0 -0 0 0 0 0 0 0 0 0 -0 -0 -1 -0 -1 -1 -0 -0 -0 -0 -0 -0 -0 -0 -0 0 0 0 0 -0 -0 0 0 -0 nan
nan 0 0 0 0 0 0 0 -2 -1 0 -0 -0 -0 0 -0 -0 -0 -0 -0 0 -0 0 -0 -0 -0 0 -0 -0 -0 -0 -0 -0 -0 -0 -0 -0 -0 -0 0 -0 -0 -0 -0 0 -0 -0 -0 -0 -0 -0 -0 -0 nan
nan 0 -0 -0 0 0 -1 -2 -0 -0 -0 -0 -0 -0 -0 0 0 -0 -0 -0 0 0 -0 0 -0 -0 -0 -0 -0 -0 -1 -1 -0 -0 -0 -0 -0 -0 -0 -0 -0 -0 -0 -0 -0 -0 -0 -0 -0 -0 -0 -0 -0 nan
nan 0 -0 -0 -0 -0 -1 -0 -0 -0 -0 -0 -0 -0 -0 -0 -0 -0 0 0 0 0 0 -0 -0 -0 -0 -0 -0 -0 -0 -0 -1 -1 -0 0 0 0 0 -0 -0 -0 -0 -0 -0 -0 -0 0 0 -0 -0 -0 -0 nan
nan 0 0 0 -0 -1 -0 -0 -0 -0 -0 -0 -0 -0 -0 -0 -0 -0 0 0 -0 -0 -0 -0 -0 -1 -0 -0 -0 -0 -0 -0 -0 -1 -0 -0 0 0 0 -0 -0 -0 -0 -0 0 -0 -0 -0 -0 -0 0 0 -0 nan
nan 0 -0 -1 -1 -0 -0 -0 -0 -0 0 -0 -0 -0 -0 -0 -0 -0 -0 -0 -1 -0 -0 -1 -0 -0 0 0 0 0 0 0 0 -0 -1 -1 -0 -0 -0 -0 0 0 -0 -0 -0 -0 -0 -0 -0 -0 -0 -0 -0 nan
nan -0 -0 -0 -0 -0 -0 -0 -0 -0 -0 -0 -0 -0 -0 -0 -0 -0 -0 -1 -0 -0 -0 -0 -0 -0 -0 -0 -0 0 1 0 -0 -0 -0 0 0 -0 -0 -0 -0 -0 -0 -0 -0 -0 -0 -0 -0 -0 -0 -0 -0 nan
nan -0 -0 -0 -0 -0 -0 0 0 0 -0 -0 -0 -0 -0 -0 -0 -0 -0 -1 -1 -0 -0 -0 -0 -0 -0 0 0 0 0 0 -0 -0 -0 -0 -0 -0 -0 -0 -0 -0 -0 -0 -0 -0 0 0 0 -0 0 0 -0 nan
nan -0 -0 -0 -0 -0 0 0 0 -0 -0 -0 -0 -0 -0 -0 -0 -0 -0 -0 -0 -0 -0 -0 -0 -0 -0 -0 -0 -0 -0 -0 -0 -0 0 -0 -0 -0 -0 -0 -0 -0 -0 -0 -0 -0 -0 0 0 -0 0 0 0 nan
nan -1 0 0 0 0 -0 -0 0 -0 -0 -0 -0 -0 -0 -0 -0 -0 -0 -0 -0 -0 -0 0 0 -0 -0 -1 -0 -0 0 0 -0 -0 -0 -0 -0 -0 -0 -0 -0 -0 0 -0 -0 0 0 -0 -0 0 0 0 0 nan
nan 0 0 -0 0 0 -0 -0 -0 -0 -0 -0 -0 0 0 0 -0 -0 -0 -0 -0 -0 0 0 0 -0 -0 -0 -0 -0 -0 0 0 -0 -0 -0 0 0 -0 -0 0 0 0 -0 -0 -0 0 0 0 -0 -0 -0 -0 nan
nan -0 -1 -0 0 0 0 -0 0 -0 -0 -0 -0 0 -0 -0 -0 -0 0 0 0 0 0 0 0 0 -0 -0 0 0 0 -0 -0 -0 0 0 -0 -0 -0 -0 0 0 -0 0 0 0 0 0 0 0 -0 -0 0 nan
nan -0 -0 -0 0 -0 0 -0 -0 -0 -0 -0 -0 -0 -0 -0 -0 -0 -0 0 0 0 0 0 0 0 0 0 0 0 0 -0 -0 -0 -0 -0 -0 -0 0 0 0 0 0 0 0 0 0 0 0 0 0 0 0 nan
nan -0 -0 -0 0 -0 -0 -0 -0 -1 -0 -0 0 -0 -1 -0 0 0 0 0 0 0 0 0 0 0 -0 0 -0 -0 -0 -0 -0 -0 -0 -0 -0 -0 -0 -0 -0 -0 0 -0 -0 -0 0 0 0 0 0 0 -0 nan
nan -0 -0 0 0 -0 -0 -0 -0 -0 0 -0 -1 -0 -0 -0 0 0 0 0 -0 -0 -0 0 0 0 0 0 0 -0 -0 0 0 -0 0 0 -0 -0 -0 -0 -0 -0 0 0 0 -0 -0 -0 0 0 0 0 0 nan
nan 0 -0 -0 -0 -1 -1 0 1 1 1 0 -0 -1 -1 -1 -0 0 0 0 1 0 0 0 -0 -0 -0 -0 -0 -0 -0 -0 -0 0 0 0 0 0 0 0 0 -0 0 0 0 0 0 0 0 -0 0 0 0 nan
nan 0 -0 -0 -1 -0 0 0 0 -0 -0 -1 -0 -0 0 -0 -1 -0 0 -0 0 0 0 -0 -0 0 0 -0 0 0 0 -0 -0 -0 0 -0 -0 0 0 0 0 0 0 0 0 0 0 0 0 0 0 0 0 nan
nan nan nan nan nan nan nan nan nan nan nan nan nan nan nan nan nan nan nan nan nan nan nan nan nan nan nan nan nan nan nan nan nan nan nan nan nan nan nan nan nan nan nan nan nan nan nan nan nan nan nan nan nan nan
Wind_Speed
36 37 37 38 38 41 38 37 38 41 40 38 35 32 31 31 30 30 29 24 30 17 29 20 21 21 16 7 4 2 3 6 4 6 5 6 4 4 6 3 15 13 10 9 13 10 13 8 3 7 8 5 8 8
36 36 36 37 40 35 34 29 29 28 39 39 37 34 33 33 32 31 29 25 27 22 16 16 29 30 22 20 12 8 9 2 12 7 6 2 4 2 7 5 12 9 10 8 11 9 3 3 8 9 7 7 10 11
36 37 38 38 38 39 30 27 24 25 31 39 36 35 33 32 32 34 32 27 27 25 20 27 30 20 22 31 27 8 8 7 8 11 2 3 5 3 5 9 5 9 9 4 1 7 9 6 7 7 9 10 11 12
32 36 29 26 26 21 19 19 21 21 31 37 36 34 34 34 34 36 38 32 29 8 6 19 17 25 33 26 27 31 26 17 12 9 3 2 4 4 5 9 6 7 3 9 8 9 7 7 8 7 10 12 14 15
30 19 19 19 19 17 14 14 22 21 28 32 33 33 33 34 35 36 38 40 35 27 5 15 20 23 19 28 28 25 24 17 10 4 2 3 4 3 6 7 7 8 6 5 4 10 9 8 9 9 13 14 15 16
13 17 23 23 19 14 14 13 18 22 25 30 30 30 32 35 34 33 21 42 45 37 9 3 7 7 15 19 23 23 21 15 12 3 3 5 9 3 3 4 10 7 8 9 4 7 8 11 10 10 11 12 12 13
14 18 19 17 10 19 16 16 14 23 27 26 29 25 22 28 30 28 8 11 43 33 9 5 4 1 12 13 14 16 18 9 6 5 5 2 2 6 3 8 6 6 6 7 8 11 1 10 6 8 9 9 8 7
12 13 13 11 12 16 19 19 18 17 22 29 29 27 25 28 34 23 12 12 35 31 8 3 2 5 12 7 5 10 6 9 5 3 3 4 5 4 3 6 5 7 7 1 6 7 6 7 4 7 8 9 5 6
14 7 6 12 4 17 21 23 22 22 24 24 23 30 30 26 17 9 16 35 31 8 6 4 4 4 12 8 9 7 6 1 2 3 3 3 4 3 4 5 7 9 8 10 11 7 3 4 5 7 8 7 5 6
7 6 10 4 8 20 26 23 27 25 26 32 40 19 7 15 22 21 21 7 6 6 6 3 10 3 10 12 9 7 6 4 3 4 4 5 3 8 5 5 5 7 8 10 9 4 9 6 5 6 7 6 6 5
7 11 15 14 17 26 28 27 31 34 42 32 7 5 28 29 19 8 6 5 5 5 8 5 10 5 4 5 5 8 3 4 3 4 3 4 3 4 4 5 5 7 7 7 6 5 4 3 4 4 7 8 8 10
19 12 16 20 28 30 33 30 36 27 13 10 25 29 13 6 4 4 3 4 4 4 4 5 7 4 5 3 1 4 3 2 3 7 4 3 4 6 5 5 5 6 7 8 7 7 7 8 9 10 11 12 13 14
17 19 22 27 29 30 31 29 20 27 43 33 10 5 2 3 2 4 6 3 4 3 4 3 3 4 3 2 1 2 4 4 6 3 2 3 7 6 6 6 8 9 8 10 10 11 12 13 13 13 16 16 16 18
20 24 24 26 30 38 29 30 34 29 9 4 3 5 4 3 3 3 4 4 5 3 4 4 5 2 3 3 1 2 2 3 4 5 3 5 8 6 8 8 8 11 12 14 14 16 18 18 20 19 19 18 17 17
17 21 29 27 34 37 28 15 9 4 6 6 6 4 4 4 5 4 3 2 3 1 2 4 4 2 2 2 0 2 4 3 5 4 4 10 9 9 10 10 11 12 13 15 15 17 19 18 19 19 18 17 16 16
14 13 15 15 15 12 7 4 8 7 7 6 7 4 2 4 6 6 7 7 4 2 2 3 2 3 2 1 1 3 2 4 3 4 12 11 11 12 12 13 14 14 14 15 17 18 18 18 17 17 15 14 12 11
5 8 15 9 10 10 10 7 7 9 7 5 5 8 6 8 7 6 5 6 4 4 2 0 2 4 1 3 3 5 3 6 12 13 13 13 13 13 15 15 15 15 15 15 15 15 15 14 13 12 13 11 11 10
5 6 7 8 10 10 11 9 7 7 7 8 5 8 10 9 7 8 7 10 5 3 4 3 2 4 4 2 4 5 15 16 15 15 15 15 14 14 14 14 14 13 13 13 12 12 11 9 8 8 8 8 8 8
6 5 5 4 3 4 5 6 6 6 7 6 7 6 8 10 11 10 9 9 11 9 6 4 5 4 3 6 13 14 14 15 17 15 15 14 14 14 14 13 12 11 11 9 8 7 7 8 7 5 5 4 4 4
6 7 5 4 3 6 6 6 6 7 4 5 8 10 7 7 8 11 12 14 11 7 8 5 4 9 12 13 14 15 16 16 16 16 13 12 11 11 10 9 9 9 8 8 7 7 5 5 5 4 4 4 3 3
8 8 9 9 10 11 7 5 7 7 8 6 9 9 9 14 15 14 11 11 13 7 5 9 12 14 16 17 17 17 14 11 9 11 12 11 9 9 8 7 7 6 5 4 4 5 5 4 3 3 3 3 3 2
7 6 5 9 7 6 7 9 9 10 7 11 10 7 6 9 9 12 15 13 8 12 8 11 12 14 16 15 14 13 12 12 13 13 12 11 9 7 6 5 4 5 4 4 3 2 2 2 3 3 3 3 3 2
7 5 6 6 6 5 6 3 3 2 4 4 4 4 4 4 5 6 6 8 8 10 10 12 14 14 16 15 15 14 13 12 12 10 10 9 8 7 6 6 5 4 3 3 3 2 1 2 2 2 2 2 1 0
5 5 5 4 6 5 4 3 4 4 5 3 3 4 3 4 6 6 4 5 5 7 9 11 11 13 13 13 13 12 11 10 10 9 7 6 5 5 5 4 4 4 3 2 2 2 1 1 2 0 1 1 2 2
4 8 5 5 4 4 4 3 3 3 4 3 3 3 3 3 3 4 3 5 6 7 7 8 8 9 10 10 9 9 9 6 6 7 7 6 5 4 3 3 3 2 3 2 1 1 1 0 0 1 1 1 3 3
6 9 5 3 2 2 3 4 3 4 4 3 4 4 3 3 4 5 3 8 8 8 8 8 8 9 9 8 7 6 5 5 5 5 4 4 4 2 1 1 1 3 3 1 1 1 3 3 3 3 3 5 7 5
4 4 5 5 2 5 6 7 8 5 4 3 3 2 2 4 4 3 9 8 9 8 7 7 6 6 7 7 6 5 4 3 4 2 2 2 1 0 2 1 0 3 3 3 2 1 2 3 4 4 5 5 5 6
5 6 4 5 7 9 4 4 4 3 3 3 3 3 3 3 3 6 7 10 10 9 8 9 9 8 8 7 6 5 4 3 3 3 3 3 3 3 3 2 3 3 4 4 5 5 5 5 5 5 6 6 7 7
6 5 7 7 7 9 10 5 4 4 3 2 3 3 4 5 7 12 11 10 9 9 9 8 8 7 6 5 4 3 2 2 2 3 2 1 2 5 5 5 5 6 6 6 6 6 6 6 6 6 7 7 8 9
4 5 6 8 5 6 8 8 8 5 6 9 13 24 23 15 14 13 11 10 9 9 8 7 7 5 5 3 2 1 2 2 1 1 1 1 2 6 6 7 7 8 7 6 5 6 8 8 8 7 7 8 7 8
4 5 7 8 6 12 16 16 19 21 21 22 17 21 16 10 10 10 10 9 9 9 8 7 6 5 3 3 2 1 3 3 3 3 4 5 6 7 7 7 8 7 7 6 6 7 7 7 7 8 8 9 10 11
5 4 7 5 9 9 5 8 12 17 15 14 12 12 11 7 5 3 8 8 6 5 7 5 3 2 1 1 0 1 2 2 3 5 5 6 6 6 6 6 6 6 6 7 6 7 7 8 9 9 10 11 12 12
19 20 20 15 7 7 5 6 5 6 6 5 3 4 4 3 4 4 11 12 12 8 6 6 4 3 2 1 1 1 2 4 5 6 6 5 5 5 5 5 5 6 6 7 8 8 9 10 10 11 12 13 13 13
Wind_Direction
287 286 284 283 279 281 277 270 265 250 231 230 230 229 225 222 220 219 225 218 214 233 250 255 260 258 264 243 228 63 152 182 178 214 238 230 237 239 244 225 187 183 190 207 228 235 241 256 164 245 49 39 27 5
288 285 283 281 283 285 283 270 254 246 232 221 222 222 220 219 219 216 223 221 221 221 246 247 251 255 261 259 261 231 254 275 201 218 234 181 261 190 261 235 205 200 206 200 194 218 156 118 86 67 29 6 9 6
288 287 283 280 279 284 277 261 249 244 219 211 214 217 217 215 216 216 218 213 215 225 251 253 253 248 247 236 245 228 233 217 258 234 294 267 238 234 232 245 213 201 238 253 174 198 224 135 83 53 19 4 1 359
302 294 291 282 276 272 274 259 232 221 205 205 208 213 216 217 216 216 219 212 210 205 241 259 257 244 243 241 237 238 245 267 290 278 255 280 258 283 246 255 279 269 315 242 236 251 270 173 84 37 0 351 348 348
297 295 284 285 272 260 265 251 217 208 201 203 209 213 216 219 217 216 218 218 209 198 224 244 241 249 241 220 231 228 226 241 266 220 180 237 268 276 272 285 268 250 281 246 256 41 348 51 15 14 2 358 352 348
302 299 297 292 257 250 242 230 213 202 199 202 205 208 210 212 211 206 202 221 214 211 255 274 247 249 211 209 213 223 221 223 232 265 216 241 241 241 284 251 253 67 57 31 50 352 346 334 13 29 9 358 348 351
291 299 292 308 262 232 224 205 200 201 199 194 195 203 201 188 189 188 164 201 205 200 217 231 245 163 181 187 208 220 223 210 225 214 204 272 267 207 250 250 106 58 27 22 14 351 3 23 342 348 348 343 346 1
306 298 313 300 252 213 202 193 186 173 184 195 200 196 180 175 179 185 205 201 188 187 211 245 139 145 171 179 189 184 186 206 216 197 219 243 260 231 233 16 34 24 350 88 1 341 309 307 300 323 325 332 0 22
324 322 348 335 275 193 177 180 176 172 172 167 162 164 159 158 155 144 143 166 162 164 178 221 189 174 178 178 192 168 172 188 155 223 227 214 203 219 52 22 28 8 6 334 328 317 339 356 352 354 359 5 22 26
360 349 328 2 147 155 164 158 165 164 149 149 145 136 125 154 164 128 143 147 151 197 224 231 209 142 188 181 193 166 185 202 207 194 173 208 87 86 70 49 14 358 358 353 354 23 360 360 8 10 20 31 51 62
61 31 61 59 125 144 144 146 150 152 152 137 138 129 141 154 150 177 145 174 162 197 186 222 193 132 186 195 185 202 195 181 227 164 214 189 108 88 58 38 13 11 15 21 29 31 28 32 64 76 69 74 82 91
52 65 67 103 120 134 136 141 148 144 140 141 122 128 128 122 150 162 135 112 192 170 139 173 184 132 148 153 190 193 199 195 265 152 207 161 98 89 76 55 41 41 52 57 68 72 75 79 86 93 93 91 94 100
71 80 86 89 130 132 139 137 124 120 123 115 93 66 44 36 143 189 156 160 147 105 130 126 126 129 130 141 200 242 216 199 138 196 84 61 99 79 69 77 70 69 77 82 80 83 86 90 104 102 98 101 103 103
93 105 106 98 104 122 126 129 123 123 110 90 93 77 12 96 75 40 23 55 71 51 97 106 120 129 117 166 309 249 60 193 191 198 103 103 88 87 80 80 93 84 86 88 88 89 91 92 92 94 97 102 104 100
98 113 114 100 123 122 128 132 147 193 67 61 42 65 69 90 66 46 35 94 71 79 128 120 99 101 95 140 4 148 193 164 12 60 89 108 112 107 100 98 96 93 90 87 91 95 97 99 97 97 98 101 103 103
108 130 147 142 155 176 204 185 147 88 64 62 45 103 50 118 83 59 37 66 32 15 118 102 130 137 100 135 134 24 315 55 82 88 105 114 106 103 102 101 100 101 98 99 100 102 103 102 101 99 101 100 98 95
111 123 97 145 167 144 147 159 52 55 60 53 67 46 55 61 48 44 21 3 355 311 65 43 69 47 173 74 79 12 29 97 105 104 105 112 113 110 110 107 105 103 103 102 102 101 99 95 89 88 85 80 76 70
123 150 134 114 94 111 97 53 74 74 68 50 76 66 71 57 52 42 27 15 24 62 44 65 62 52 30 55 96 107 96 95 95 100 103 105 106 110 110 108 110 108 106 106 100 94 89 90 87 86 87 83 72 67
146 144 130 125 96 90 77 56 60 88 72 78 68 74 74 61 48 48 48 52 66 76 89 59 51 42 53 76 109 114 115 114 110 103 99 110 117 118 117 114 111 107 104 98 99 99 95 98 93 88 84 87 84 70
104 126 132 121 98 83 80 66 74 84 84 96 74 69 73 53 50 52 52 51 61 60 54 45 47 63 83 87 102 110 114 118 118 112 104 101 99 99 98 101 99 95 92 90 88 86 80 73 66 81 98 108 96 72
92 102 95 92 65 68 79 80 74 98 112 97 103 94 83 68 55 47 43 41 54 37 68 75 82 79 95 100 104 106 105 110 109 119 123 116 107 100 93 89 91 96 96 90 80 77 78 79 69 74 76 80 90 99
116 110 73 54 78 75 71 42 104 120 97 112 96 95 86 69 52 43 49 55 69 40 56 88 95 96 90 88 91 96 107 116 111 111 107 98 103 101 96 89 94 90 86 83 94 104 102 99 92 85 78 85 103 140
105 74 58 53 82 76 108 128 93 80 99 107 115 84 68 74 59 62 76 56 72 55 78 90 95 101 101 100 100 95 94 98 97 97 97 98 96 92 89 81 78 82 82 71 87 114 175 113 158 107 101 104 128 22
95 66 53 55 65 94 111 73 88 90 92 77 72 81 64 75 90 71 73 73 71 84 90 97 102 102 98 94 90 86 84 92 95 92 89 93 93 87 88 82 75 83 91 89 89 97 111 184 92 325 203 224 239 219
97 18 30 72 76 103 99 94 74 81 86 87 90 91 95 127 80 83 92 114 119 105 103 103 106 110 110 105 98 89 86 90 97 93 78 80 83 75 66 73 67 52 55 10 0 342 292 88 350 253 279 273 255 280
75 24 26 38 67 90 98 109 109 107 99 86 78 102 111 88 80 95 97 139 129 120 113 113 116 114 106 104 108 99 80 78 91 92 65 56 61 63 39 353 336 331 339 13 340 292 294 291 285 291 300 313 307 292
81 63 57 42 46 100 101 79 79 79 79 87 107 111 109 82 91 92 129 122 136 126 121 111 116 128 129 116 109 104 94 97 118 104 45 19 14 52 94 81 195 277 317 314 318 315 299 304 302 301 303 307 306 300
70 37 80 41 71 44 76 60 54 60 74 53 91 57 73 69 105 120 137 139 135 132 124 121 116 119 119 119 116 110 105 85 58 42 33 26 19 22 15 354 335 320 315 313 303 298 292 297 295 294 297 296 295 301
68 78 87 47 61 54 38 35 57 55 24 17 101 93 100 88 110 127 128 128 127 125 125 126 124 125 126 132 135 125 96 62 59 22 33 25 340 320 334 332 330 330 328 327 324 317 313 310 300 294 291 294 291 297
64 40 90 54 55 49 39 47 74 65 81 92 103 111 104 94 91 108 111 118 125 126 127 136 131 122 120 102 98 40 6 5 12 97 353 321 272 303 311 315 319 322 322 319 309 303 316 322 319 320 318 314 307 300
76 72 77 70 81 87 95 94 85 82 89 98 105 108 112 115 103 117 126 130 133 130 129 133 133 124 97 87 100 27 329 340 338 329 319 312 309 306 310 313 316 319 320 321 320 318 317 320 315 312 312 310 311 314
44 72 122 109 123 142 101 98 79 92 92 93 99 102 108 109 105 145 157 134 123 130 148 124 126 160 127 118 327 289 290 316 324 325 320 315 312 314 315 318 321 324 326 325 324 323 322 320 317 315 312 311 310 310
97 98 103 100 120 148 162 141 110 108 97 97 95 101 88 87 121 165 173 169 159 163 165 171 159 149 134 93 21 337 324 329 330 330 327 323 322 326 331 334 335 336 336 332 328 324 322 319 316 314 312 310 310 310
Height
1374 1371 1369 1366 1364 1361 1359 1360 1361 1364 1372 1379 1386 1393 1399 1405 1411 1416 1420 1426 1430 1431 1428 1429 1428 1428 1429 1426 1428 1430 1433 1431 1434 1430 1421 1410 1406 1400 1395 1399 1397 1405 1414 1415 1416 1416 1412 1396 1397 1403 1407 1407 1410 1413
1362 1359 1356 1354 1351 1348 1347 1346 1347 1351 1356 1367 1376 1383 1390 1397 1404 1411 1416 1422 1426 1429 1425 1425 1424 1425 1425 1426 1430 1429 1425 1423 1421 1419 1409 1411 1407 1404 1397 1396 1401 1404 1400 1399 1401 1400 1397 1397 1403 1408 1411 1411 1412 1412
1349 1346 1343 1340 1338 1335 1333 1334 1337 1340 1346 1356 1366 1374 1383 1391 1398 1404 1409 1417 1421 1424 1423 1422 1416 1418 1419 1421 1425 1426 1422 1424 1418 1414 1414 1410 1409 1406 1406 1394 1395 1391 1402 1397 1403 1392 1399 1398 1404 1408 1411 1412 1412 1412
1338 1334 1330 1327 1326 1325 1325 1325 1329 1333 1339 1349 1358 1367 1375 1383 1390 1398 1402 1410 1415 1421 1421 1409 1409 1407 1411 1416 1418 1419 1420 1420 1418 1417 1414 1413 1409 1403 1401 1396 1393 1390 1394 1392 1394 1393 1395 1397 1405 1410 1411 1411 1411 1411
1327 1324 1322 1320 1319 1319 1319 1320 1324 1328 1335 1343 1352 1360 1368 1375 1382 1390 1397 1402 1409 1415 1405 1404 1403 1401 1404 1407 1411 1414 1416 1419 1419 1415 1416 1413 1408 1407 1403 1401 1396 1392 1391 1394 1394 1401 1402 1402 1408 1410 1411 1412 1413 1413
1321 1318 1315 1311 1311 1312 1314 1316 1319 1325 1331 1338 1346 1353 1360 1367 1376 1384 1389 1394 1400 1407 1413 1404 1398 1395 1396 1401 1405 1409 1411 1414 1415 1413 1413 1410 1409 1410 1407 1398 1394 1398 1403 1406 1404 1409 1410 1410 1410 1411 1415 1416 1415 1414
1316 1312 1309 1305 1302 1305 1309 1312 1316 1320 1327 1335 1342 1349 1355 1362 1370 1373 1376 1380 1392 1407 1412 1405 1396 1393 1394 1399 1403 1406 1409 1410 1413 1411 1411 1409 1408 1409 1405 1400 1408 1408 1410 1410 1410 1410 1410 1412 1415 1416 1417 1417 1417 1416
1311 1307 1303 1298 1297 1299 1303 1308 1313 1318 1323 1331 1339 1347 1355 1360 1369 1375 1377 1379 1388 1401 1402 1394 1389 1392 1395 1397 1400 1402 1404 1407 1406 1406 1407 1404 1404 1406 1406 1410 1410 1413 1414 1414 1416 1417 1418 1417 1416 1415 1415 1414 1415 1415
1305 1303 1299 1293 1289 1292 1299 1306 1312 1318 1324 1330 1336 1345 1356 1363 1369 1371 1375 1381 1387 1395 1393 1391 1386 1387 1393 1394 1397 1400 1402 1403 1404 1402 1404 1405 1400 1404 1415 1414 1416 1419 1419 1418 1417 1416 1417 1417 1417 1416 1415 1415 1414 1414
1305 1301 1297 1292 1290 1292 1299 1305 1312 1319 1324 1332 1339 1349 1356 1362 1368 1374 1382 1384 1387 1389 1388 1385 1382 1387 1390 1391 1393 1396 1398 1396 1395 1399 1402 1400 1412 1417 1419 1420 1421 1420 1419 1418 1417 1415 1417 1417 1417 1417 1416 1416 1415 1415
1305 1303 1297 1290 1291 1295 1303 1309 1314 1321 1325 1334 1341 1346 1354 1362 1370 1374 1377 1380 1383 1382 1381 1381 1381 1386 1391 1390 1390 1391 1393 1391 1387 1390 1395 1392 1405 1419 1421 1422 1422 1421 1419 1419 1419 1419 1419 1419 1418 1419 1418 1417 1417 1417
1310 1306 1303 1299 1301 1305 1309 1315 1320 1325 1330 1333 1338 1349 1356 1362 1366 1368 1369 1373 1372 1369 1377 1379 1382 1384 1389 1390 1391 1389 1389 1389 1384 1391 1389 1387 1417 1421 1423 1423 1423 1422 1421 1421 1421 1421 1421 1420 1420 1420 1420 1419 1420 1419
1315 1313 1310 1309 1310 1313 1319 1324 1328 1332 1335 1341 1347 1354 1358 1365 1362 1360 1365 1365 1368 1374 1378 1380 1383 1385 1389 1390 1391 1390 1389 1385 1390 1390 1391 1410 1420 1422 1423 1424 1424 1424 1425 1424 1424 1423 1422 1422 1422 1422 1420 1421 1423 1423
1320 1320 1320 1320 1320 1324 1328 1331 1334 1339 1342 1348 1353 1362 1362 1365 1369 1370 1370 1371 1378 1379 1379 1381 1384 1385 1388 1391 1391 1387 1393 1391 1387 1387 1400 1417 1422 1425 1425 1426 1426 1427 1427 1427 1427 1426 1425 1426 1426 1425 1426 1426 1427 1427
1328 1329 1330 1330 1331 1334 1337 1339 1341 1343 1345 1352 1357 1367 1374 1378 1378 1379 1378 1379 1381 1382 1382 1383 1385 1387 1389 1392 1391 1392 1391 1386 1391 1399 1414 1423 1426 1427 1428 1429 1429 1429 1430 1429 1430 1429 1430 1431 1430 1430 1431 1431 1432 1433
1334 1335 1335 1337 1338 1339 1339 1340 1342 1343 1355 1365 1374 1376 1379 1378 1380 1380 1381 1381 1382 1382 1383 1384 1384 1385 1389 1389 1388 1392 1382 1389 1408 1417 1423 1427 1429 1430 1431 1432 1433 1433 1434 1434 1434 1435 1436 1436 1436 1436 1437 1437 1437 1437
1334 1336 1337 1337 1338 1340 1341 1343 1344 1354 1366 1375 1382 1384 1383 1385 1385 1385 1385 1385 1383 1383 1382 1382 1382 1390 1389 1390 1398 1406 1406 1415 1420 1424 1427 1430 1432 1433 1434 1436 1437 1438 1438 1439 1440 1440 1441 1442 1442 1442 1442 1443 1442 1440
1335 1336 1337 1339 1340 1343 1344 1347 1357 1369 1380 1384 1385 1387 1388 1388 1388 1388 1387 1386 1384 1385 1386 1391 1392 1395 1397 1397 1406 1418 1421 1424 1427 1430 1432 1434 1436 1437 1438 1439 1440 1441 1441 1442 1444 1445 1446 1446 1446 1446 1445 1445 1445 1444
1335 1337 1338 1339 1341 1342 1350 1360 1365 1376 1386 1389 1390 1390 1391 1392 1392 1392 1391 1390 1389 1389 1391 1396 1401 1406 1413 1416 1419 1424 1427 1429 1432 1435 1436 1438 1439 1440 1441 1442 1443 1444 1445 1446 1447 1447 1447 1447 1448 1448 1448 1448 1448 1447
1337 1338 1339 1341 1342 1345 1357 1367 1370 1378 1386 1392 1393 1393 1395 1396 1396 1395 1394 1394 1393 1395 1404 1412 1419 1423 1423 1425 1426 1429 1431 1434 1436 1438 1441 1443 1444 1445 1446 1447 1447 1448 1449 1449 1449 1450 1450 1449 1448 1447 1447 1448 1448 1447
1341 1342 1342 1342 1344 1351 1363 1370 1376 1384 1389 1392 1395 1396 1399 1400 1400 1399 1399 1400 1401 1414 1422 1428 1429 1429 1429 1430 1432 1434 1436 1438 1440 1441 1444 1446 1447 1448 1449 1449 1450 1451 1451 1451 1451 1450 1450 1450 1449 1448 1448 1447 1447 1446
1344 1344 1345 1345 1351 1361 1370 1374 1377 1382 1388 1393 1395 1397 1400 1403 1405 1407 1409 1410 1423 1431 1430 1432 1433 1434 1434 1436 1437 1438 1439 1440 1442 1444 1446 1448 1450 1451 1451 1451 1452 1451 1452 1452 1452 1452 1451 1450 1449 1449 1448 1447 1447 1447
1346 1346 1347 1351 1356 1366 1380 1378 1380 1382 1384 1392 1395 1398 1403 1407 1412 1413 1420 1429 1435 1437 1437 1437 1437 1438 1438 1439 1441 1442 1444 1446 1447 1448 1449 1450 1450 1451 1452 1452 1452 1452 1452 1452 1452 1451 1450 1448 1448 1448 1448 1448 1448 1447
1348 1349 1353 1357 1362 1372 1377 1379 1381 1383 1387 1390 1394 1401 1406 1410 1414 1420 1429 1437 1441 1441 1441 1441 1442 1443 1444 1445 1446 1447 1449 1449 1450 1451 1452 1453 1453 1453 1453 1452 1452 1451 1452 1451 1451 1450 1450 1448 1447 1449 1448 1448 1447 1448
1352 1362 1363 1365 1368 1370 1375 1380 1383 1384 1389 1394 1398 1403 1409 1411 1415 1424 1431 1440 1442 1443 1444 1445 1445 1447 1448 1449 1450 1450 1451 1453 1453 1453 1453 1454 1454 1454 1453 1453 1452 1451 1451 1452 1451 1450 1449 1448 1448 1448 1447 1447 1446 1446
1360 1370 1369 1369 1371 1371 1374 1378 1382 1387 1392 1398 1404 1408 1409 1410 1416 1426 1435 1441 1443 1445 1446 1447 1449 1450 1451 1452 1453 1453 1453 1453 1454 1454 1453 1453 1453 1454 1454 1454 1454 1452 1449 1449 1450 1450 1449 1447 1447 1446 1446 1446 1443 1442
1367 1373 1376 1378 1377 1377 1380 1385 1387 1390 1393 1399 1403 1407 1408 1414 1424 1436 1440 1443 1444 1446 1447 1448 1450 1451 1452 1452 1452 1451 1452 1452 1453 1453 1453 1452 1452 1451 1452 1453 1452 1450 1448 1447 1447 1447 1447 1446 1446 1445 1445 1444 1443 1441
1376 1379 1379 1384 1384 1385 1387 1391 1395 1399 1403 1407 1407 1413 1415 1420 1429 1437 1440 1442 1444 1445 1446 1447 1449 1451 1451 1451 1452 1453 1453 1453 1453 1453 1453 1452 1452 1451 1450 1449 1449 1448 1447 1446 1445 1444 1444 1443 1443 1444 1443 1442 1441 1439
1381 1384 1385 1390 1390 1395 1402 1404 1407 1411 1413 1411 1411 1417 1426 1432 1436 1438 1441 1443 1445 1446 1447 1449 1450 1451 1452 1453 1453 1454 1454 1454 1455 1455 1455 1455 1455 1453 1450 1449 1448 1447 1446 1445 1444 1443 1442 1441 1441 1440 1439 1439 1437 1436
1387 1388 1390 1397 1402 1409 1415 1414 1415 1415 1415 1415 1418 1424 1429 1435 1439 1442 1444 1446 1448 1449 1450 1451 1452 1454 1454 1454 1454 1454 1454 1454 1453 1454 1455 1454 1453 1450 1449 1448 1447 1446 1445 1444 1443 1443 1441 1440 1439 1438 1437 1436 1436 1434
1389 1390 1395 1404 1414 1421 1420 1420 1420 1420 1420 1422 1426 1427 1432 1437 1442 1443 1444 1446 1448 1449 1451 1452 1453 1454 1455 1455 1456 1455 1455 1453 1453 1452 1452 1451 1450 1449 1448 1447 1446 1445 1444 1443 1442 1441 1440 1439 1438 1437 1436 1434 1433 1431
1393 1394 1398 1407 1420 1424 1422 1425 1425 1427 1430 1431 1433 1435 1438 1440 1444 1447 1447 1449 1451 1452 1453 1454 1455 1454 1454 1454 1454 1454 1454 1453 1452 1451 1450 1450 1449 1447 1446 1445 1444 1443 1442 1442 1440 1440 1438 1437 1436 1435 1434 1432 1430 1429
1400 1401 1403 1407 1417 1420 1423 1423 1426 1432 1434 1436 1439 1440 1441 1442 1445 1447 1447 1449 1451 1452 1453 1453 1454 1454 1454 1454 1454 1454 1453 1452 1452 1451 1449 1448 1447 1446 1445 1444 1443 1443 1442 1441 1439 1438 1437 1436 1434 1433 1431 1429 1428 1426